Regional Weather Roundup
Issued by NWS

Home | Current Version | Previous Version | Text Only | Print | Product List | Glossary Off
Versions: 1 2 3 4 5 6 7 8 9 10 11 12 13 14 15 16 17 18 19 20 21 22 23 24 25 26 27 28

000
ASUS45 KTFX 180310
RWRMT
MONTANA REGIONAL WEATHER ROUNDUP
NATIONAL WEATHER SERVICE GREAT FALLS MT
800 PM MST WED JAN 17 2018

NOTE: "FAIR" INDICATES FEW OR NO CLOUDS BELOW 12000 FEET WITH NO
SIGNIFICANT WEATHER AND/OR OBSTRUCTIONS TO VISIBILITY.

MTZ001>007-043-180400-
WEST OF THE DIVIDE

CITY           SKY/WX    TMP DP  RH WIND       PRES   REMARKS
KALISPELL      CLOUDY    27  27 100 CALM      30.06F
MISSOULA       CLOUDY    31  26  82 CALM      30.10F
BUTTE          FAIR      21  14  74 VRB5      30.13F
MULLAN PASS    FAIR      30  27  88 VRB5      29.98F
ANACONDA         N/A     36  18  48 S13       30.10F WCI  27
DEER LODGE       N/A     25  19  80 CALM      30.11F
EUREKA           N/A     30  27  86 MISG      30.05F
HAMILTON         N/A     45  19  36 S17       30.09F
PLAINS           N/A     28  24  85 CALM      30.06F
RONAN            N/A     27  27 100 CALM      30.07F
THOMPSON FALLS   N/A     33  27  79 E15       30.06F WCI  23
$$

MTZ008-052>055-180400-
SOUTHWEST MONTANA

CITY           SKY/WX    TMP DP  RH WIND       PRES   REMARKS
BOZEMAN        FAIR      24  18  77 S6        30.14F WCI  17
DILLON         FAIR      28  20  71 SW13      30.16F WCI  17
ENNIS          MOCLDY    36  25  64 S20       30.23F WCI  25
W YELLOWSTONE  CLOUDY    27  21  80 CALM      30.30S
THREE FORKS      N/A     24  19  81 CALM      30.12F
TWIN BRIDGES     N/A     34  19  54 CALM      30.13F
$$

MTZ009-010-012-014-046-048-049-054-180400-
EAST SLOPES AND CENTRAL MONTANA

CITY           SKY/WX    TMP DP  RH WIND       PRES   REMARKS
CUT BANK       FAIR      42  29  59 W16       29.90F
GREAT FALLS    FAIR      40  22  48 SW23G32   29.97F
MALMSTROM AFB  MOCLDY    40  27  59 S12       29.97F
HELENA         CLOUDY    27  21  78 W3        30.11F
AUGUSTA        FAIR      36  23  59 S16       29.97F WCI  26
BOWMANS CRNR   FAIR      35  21  57 S23       29.99F WCI  23
CHOTEAU          N/A     39  25  56 VRB3      29.96F
CONRAD           N/A    N/A N/A N/A SW9       29.94F
FAIRFIELD      MOCLDY    40  22  49 S17       29.94F
POWER          MOCLDY    40  23  52 SW25      29.94F
ULM            CLOUDY    39  25  56 SW3       29.99F
WHITE SULPHUR    N/A     36  23  60 S18       30.08F WCI  25
$$

MTZ011-013-016-021-045-047-050-051-180400-
NORTH CENTRAL MONTANA

CITY           SKY/WX    TMP DP  RH WIND       PRES   REMARKS
HAVRE          FAIR      32  25  75 SW13      29.91F WCI  22
LEWISTOWN      FAIR      41  25  53 SW22      29.98F
N BAR RANCH    FAIR      41  10  28 W5        29.99F
CHINOOK          N/A     21  18  86 E3        29.92F
DENTON         FAIR      38  24  58 MISG      29.91F
GRASS RANGE    MOCLDY    43  21  42 W14       29.93F
STANFORD       MOCLDY    41  22  46 S6        29.96F
WINIFRED       FAIR      39  24  56 W9        29.94F
$$

MTZ017>020-022>027-061-062-180400-
NORTHEAST MONTANA

CITY           SKY/WX    TMP DP  RH WIND       PRES   REMARKS
GLASGOW        FAIR      20  15  81 SE8       29.94F WCI  10
GLENDIVE       FAIR      19  14  81 S14       30.00F WCI   6
JORDAN           N/A     36  24  62 W12       29.95F WCI  28
MALTA          CLEAR     10   9  92 CALM      29.95F
SIDNEY         FAIR      18  14  84 SW10      30.00F WCI   6
WOLF POINT     FAIR      12   7  80 E3        29.98F
PLENTYWOOD       N/A     27  19  74 CALM      29.93S
POPLAR           N/A     19  14  79 CALM      29.99F
SCOBEY           N/A     23  12  62 S2        29.92F
$$

MTZ028>42-056>058-180400-
SOUTHCENTRAL AND SOUTHEAST MONTANA

CITY           SKY/WX    TMP DP  RH WIND       PRES   REMARKS
BAKER          FAIR      34  23  64 SW16      30.02F WCI  24
BILLINGS       MOCLDY    38  19  46 SW24      30.05F WCI  27
LIVINGSTON     FAIR      42  26  53 SW36G54   30.06F
MILES CITY     FAIR      20  14  77 S8        30.03F WCI  10
BIG TIMBER     CLEAR     43  23  45 W29G35    30.08F
FORSYTH          N/A     30  16  55 CALM      30.04F
HARLOWTON      MOCLDY    36  23  58 SW8       30.05F WCI  30
LAUREL           N/A     37  19  48 SW16      30.08S WCI  28
ROUNDUP          N/A     36  19  50 S14       29.94F WCI  27
$$

REGIONAL REPORTS...DAKOTAS

CITY           SKY/WX    TMP DP  RH WIND       PRES   REMARKS
WILLISTON      FAIR      24  18  77 SW9       29.98F WCI  14
MINOT          FAIR      37  23  56 W20G26    29.89F WCI  27
DICKINSON      FAIR      28  20  71 W14       29.97F WCI  17
BEACH          FAIR      30  19  64 SW16      30.02F WCI  19
CROSBY         FAIR      28  19  69 SW15G22   29.91F WCI  17
TIOGA          FAIR      28  19  69 W21G26    29.94F WCI  15
WATFORD CITY   FAIR      25  19  80 SW13      29.97F WCI  13
BISMARCK       FAIR      28  20  71 SW8       30.02F WCI  20
GRAND FORKS    FAIR      31  23  72 SW12G21   29.85F WCI  22
FARGO          FAIR      30  22  72 SW15      29.94F WCI  19
BUFFALO SD       N/A     30  22  72 W21       29.98F WCI  17
RAPID CITY     FAIR      34  16  47 CALM      30.09F
$$

REGIONAL REPORTS...WYOMING/IDAHO/WASHINGTON

CITY           SKY/WX    TMP DP  RH WIND       PRES   REMARKS
GILLETTE         N/A    N/A N/A N/A MISG      30.08F
SHERIDAN       FAIR      22  14  71 S3        30.08F
BUFFALO WY     FAIR      33  11  39 W7        30.10F WCI  27
CODY           FAIR      33  17  51 CALM      30.16F
YELLOWSTONE LA   N/A     23  21  92 CALM      30.32F
IDAHO FALLS    FAIR      31  28  89 N3        30.32F
SALMON         FAIR      21  19  92 S5        30.30R
BOISE          FAIR      43  33  68 SE9       30.21F
SPOKANE        MOCLDY    38  34  85 E7        29.90F
$$

REGIONAL REPORTS...ALBERTA

CITY           SKY/WX    TMP DP  RH WIND       PRES   REMARKS
CALGARY        PTCLDY    34  19  55 SW9       29.69F WCI  26
CARDSTON         N/A     43  28  56 MISG        N/A
EDMONTON       MOCLDY    25  16  68 CALM      29.65F
FORT MCMURRAY  CLEAR     28  25  86 SW3       29.63F
HIGH LEVEL     CLEAR     14  12  92 S2        29.52F
LETHBRIDGE     MOCLDY    39  28  65 W15       29.83F WCI  31
LLOYDMINSTER   PTCLDY    21  16  79 SW3       29.72F
MEDICINE HAT   CLOUDY    37  27  65 SW16      29.80F WCI  28
MILK RIVER       N/A     39  28  65 SE6         N/A
ONEFOUR          N/A     28  18  64 E6          N/A  WCI  22
PEACE RIVER    MOCLDY    16  10  79 N3        29.54F
PINCHER CREEK  CLEAR     39  28  65 W21G28    29.83F WCI  29
$$

REGIONAL REPORTS...SASKATCHEWAN

CITY           SKY/WX    TMP DP  RH WIND       PRES   REMARKS
CORONACH         N/A     25  18  74 W9          N/A  WCI  15
CYPRESS HILLS    N/A     37  14  38 SW9         N/A  WCI  31
ESTEVAN        PTCLDY    23  16  74 SW9       29.88F WCI  13
MOOSE JAW        N/A     27  18  69 W10         N/A  WCI  17
REGINA         PTCLDY    21  18  86 W7        29.84F WCI  13
ROCKGLEN         N/A     23  16  74 W13         N/A  WCI  11
SASKATOON      CLEAR     25  19  80 W13       29.79F WCI  13
SWIFT CURRENT  CLEAR     23  16  74 SW13      29.83F WCI  11
VAL MARIE        N/A      9   7  92 S1          N/A
$$




USA.gov is the U.S. government's official web portal to all federal, state and local government web resources and services.